Temp
-12 -11 -11 -11 -11 -11 -11 -12 -12 -12 -12 -12 -13 -13 -13 -12 -13 -13 -13 -13 -13 -13 -13 -13 -13 -13 -13 -13 -13 -13 -13 -13 -13 -12 -12 -12 -12 -12 -12 -12 -12 -13 -13 -13 -13 -13 -14 -14 -14 -14 -14 -14 -14 -14 -14 -14 -14 -14 -14 -14 -14 -14
-12 -12 -11 -11 -11 -11 -11 -12 -12 -12 -12 -13 -13 -13 -13 -13 -13 -13 -13 -13 -13 -13 -13 -13 -13 -13 -13 -13 -13 -13 -13 -13 -13 -13 -13 -12 -12 -12 -12 -12 -12 -13 -13 -13 -13 -13 -13 -13 -14 -14 -14 -14 -14 -14 -14 -14 -14 -14 -14 -14 -14 -14
-12 -12 -12 -12 -12 -11 -12 -12 -12 -12 -12 -13 -13 -13 -13 -14 -14 -13 -13 -13 -13 -13 -14 -14 -14 -13 -13 -13 -13 -13 -13 -13 -13 -13 -13 -13 -12 -12 -12 -12 -13 -13 -13 -13 -13 -13 -13 -13 -14 -14 -14 -14 -14 -14 -14 -14 -14 -14 -15 -15 -14 -14
-12 -12 -12 -12 -12 -12 -12 -12 -12 -12 -13 -13 -13 -14 -14 -14 -14 -14 -14 -14 -14 -14 -14 -14 -14 -14 -13 -13 -13 -13 -13 -13 -13 -13 -13 -13 -13 -13 -13 -13 -13 -13 -13 -13 -13 -13 -13 -13 -14 -14 -14 -14 -14 -14 -14 -14 -14 -14 -15 -15 -15 -14
-12 -12 -12 -12 -12 -12 -13 -13 -13 -13 -13 -13 -14 -14 -14 -14 -14 -14 -14 -14 -14 -14 -14 -14 -14 -14 -14 -14 -13 -13 -13 -13 -13 -13 -13 -13 -13 -13 -13 -13 -13 -13 -13 -13 -13 -13 -13 -13 -14 -14 -14 -14 -14 -14 -14 -14 -14 -14 -14 -15 -15 -15
-12 -12 -12 -12 -12 -12 -13 -13 -13 -13 -13 -13 -14 -14 -14 -14 -14 -14 -14 -14 -14 -14 -14 -14 -14 -14 -14 -14 -13 -13 -13 -13 -13 -13 -13 -13 -13 -13 -13 -13 -13 -13 -13 -13 -13 -13 -13 -13 -14 -14 -14 -14 -14 -14 -14 -14 -14 -14 -14 -14 -15 -15
-13 -12 -12 -12 -12 -12 -13 -13 -13 -13 -13 -14 -14 -14 -14 -14 -14 -14 -14 -14 -14 -14 -14 -14 -14 -14 -13 -13 -13 -13 -13 -13 -13 -13 -13 -13 -13 -13 -13 -13 -13 -14 -14 -14 -14 -13 -13 -14 -14 -14 -14 -14 -14 -14 -14 -14 -14 -14 -14 -14 -14 -14
-13 -13 -13 -13 -13 -13 -13 -13 -13 -14 -14 -14 -14 -14 -14 -14 -14 -14 -14 -14 -14 -14 -14 -14 -14 -13 -13 -13 -13 -13 -13 -13 -13 -13 -13 -13 -13 -13 -13 -14 -14 -14 -14 -14 -14 -14 -14 -14 -14 -14 -14 -14 -14 -14 -14 -14 -14 -14 -14 -14 -14 -14
-13 -13 -13 -14 -13 -13 -13 -13 -14 -14 -14 -14 -14 -14 -14 -14 -14 -14 -14 -14 -14 -14 -14 -14 -13 -13 -13 -13 -13 -13 -13 -13 -13 -13 -13 -13 -13 -13 -14 -14 -14 -14 -14 -14 -14 -14 -14 -14 -14 -14 -14 -14 -14 -14 -15 -14 -14 -14 -14 -14 -14 -14
-13 -14 -14 -14 -14 -13 -14 -14 -14 -14 -14 -14 -14 -14 -14 -14 -14 -14 -14 -14 -14 -14 -14 -14 -13 -13 -13 -13 -13 -14 -14 -14 -14 -14 -14 -14 -13 -14 -14 -14 -14 -14 -14 -14 -14 -14 -14 -14 -14 -14 -14 -14 -14 -14 -15 -15 -15 -15 -14 -14 -15 -15
-14 -14 -14 -14 -14 -14 -14 -14 -14 -14 -15 -15 -15 -15 -15 -14 -14 -14 -14 -14 -14 -14 -14 -13 -13 -13 -13 -13 -13 -14 -14 -14 -14 -14 -14 -14 -14 -14 -14 -14 -14 -14 -14 -14 -14 -14 -14 -14 -15 -15 -14 -14 -15 -15 -15 -15 -15 -15 -15 -15 -15 -15
-14 -14 -14 -14 -14 -14 -14 -14 -14 -15 -15 -15 -15 -15 -15 -14 -14 -14 -14 -14 -14 -14 -13 -13 -13 -14 -14 -14 -14 -14 -14 -14 -14 -14 -14 -14 -14 -14 -14 -14 -14 -14 -14 -14 -14 -14 -14 -15 -15 -15 -15 -15 -15 -15 -15 -15 -15 -15 -15 -15 -15 -15
-14 -14 -14 -14 -13 -13 -14 -14 -15 -15 -15 -15 -15 -15 -14 -14 -14 -14 -14 -14 -14 -13 -13 -13 -14 -14 -14 -14 -15 -14 -14 -14 -14 -14 -14 -14 -14 -14 -14 -14 -14 -14 -14 -14 -14 -14 -14 -15 -15 -15 -15 -15 -15 -15 -15 -15 -15 -15 -15 -15 -15 -15
-14 -14 -14 -13 -13 -14 -14 -15 -15 -15 -15 -15 -15 -14 -14 -14 -14 -14 -14 -14 -14 -14 -13 -14 -14 -14 -14 -15 -15 -14 -14 -14 -14 -14 -14 -14 -14 -14 -14 -14 -14 -14 -14 -14 -14 -14 -14 -15 -15 -15 -15 -15 -15 -15 -14 -14 -15 -15 -15 -15 -15 -15
-14 -14 -14 -13 -14 -14 -14 -14 -15 -15 -15 -15 -14 -14 -14 -14 -14 -14 -14 -14 -14 -14 -14 -14 -14 -14 -14 -15 -14 -14 -14 -14 -14 -14 -14 -14 -14 -14 -15 -15 -15 -15 -15 -15 -14 -14 -14 -15 -15 -15 -15 -15 -15 -15 -15 -15 -15 -15 -15 -15 -15 -15
-14 -14 -14 -14 -14 -14 -14 -14 -14 -15 -15 -15 -14 -14 -14 -14 -14 -14 -14 -14 -14 -14 -14 -14 -14 -14 -15 -15 -14 -14 -14 -14 -14 -14 -14 -14 -14 -15 -15 -15 -15 -15 -15 -15 -15 -15 -15 -15 -15 -15 -15 -15 -15 -15 -15 -15 -15 -15 -15 -15 -15 -15
-15 -15 -15 -15 -15 -15 -14 -14 -14 -15 -15 -15 -14 -14 -14 -14 -14 -14 -14 -14 -14 -14 -14 -14 -14 -14 -14 -14 -14 -14 -14 -14 -14 -14 -14 -14 -14 -15 -15 -15 -15 -15 -15 -15 -15 -15 -15 -15 -15 -15 -15 -15 -15 -15 -15 -15 -15 -15 -15 -15 -15 -15
-15 -15 -15 -15 -15 -15 -15 -15 -15 -15 -15 -15 -14 -14 -14 -14 -14 -14 -14 -14 -14 -14 -14 -14 -14 -14 -14 -14 -14 -14 -14 -14 -14 -14 -14 -14 -14 -14 -15 -15 -15 -15 -15 -15 -15 -15 -15 -15 -15 -15 -15 -15 -15 -15 -15 -15 -15 -15 -15 -15 -15 -15
-15 -15 -15 -15 -15 -15 -15 -15 -15 -15 -15 -15 -15 -15 -15 -14 -14 -14 -14 -14 -14 -14 -14 -14 -14 -14 -14 -14 -14 -14 -14 -14 -14 -14 -14 -14 -14 -14 -15 -15 -15 -15 -15 -15 -15 -15 -15 -15 -15 -15 -15 -15 -15 -15 -15 -15 -15 -15 -15 -15 -15 -15
-15 -15 -15 -15 -15 -15 -15 -15 -15 -15 -15 -15 -15 -15 -15 -15 -15 -15 -15 -15 -15 -15 -14 -14 -14 -14 -14 -14 -14 -14 -14 -14 -14 -14 -14 -14 -14 -14 -14 -14 -15 -15 -15 -15 -14 -15 -15 -15 -15 -15 -15 -15 -15 -15 -15 -15 -15 -15 -15 -15 -15 -15
-15 -15 -15 -15 -15 -15 -15 -15 -15 -15 -15 -15 -15 -15 -15 -15 -15 -15 -15 -15 -15 -15 -15 -15 -14 -14 -14 -14 -14 -14 -14 -14 -14 -14 -14 -14 -14 -14 -14 -14 -14 -15 -15 -14 -14 -15 -15 -15 -15 -15 -15 -15 -15 -15 -15 -15 -15 -15 -15 -15 -15 -15
-15 -15 -15 -15 -15 -15 -15 -15 -15 -15 -15 -15 -15 -15 -15 -15 -15 -15 -15 -15 -15 -15 -15 -15 -15 -15 -14 -14 -14 -14 -14 -14 -14 -14 -14 -14 -14 -14 -15 -15 -14 -15 -15 -14 -14 -15 -15 -15 -15 -15 -15 -15 -15 -15 -15 -15 -15 -15 -15 -15 -15 -15
-15 -15 -15 -15 -15 -15 -15 -15 -15 -15 -15 -15 -15 -15 -15 -15 -15 -15 -15 -15 -15 -15 -15 -15 -15 -15 -15 -14 -14 -14 -14 -14 -14 -14 -14 -14 -14 -15 -15 -15 -15 -15 -15 -15 -15 -15 -15 -15 -15 -15 -15 -15 -15 -15 -15 -15 -15 -15 -15 -15 -15 -15
-16 -16 -16 -16 -16 -16 -16 -16 -15 -15 -16 -16 -16 -16 -16 -15 -15 -15 -15 -15 -15 -15 -15 -15 -14 -15 -15 -15 -15 -14 -14 -14 -14 -14 -14 -14 -14 -14 -15 -15 -15 -15 -15 -15 -15 -15 -15 -15 -15 -15 -15 -15 -15 -15 -15 -15 -15 -15 -15 -15 -15 -15
-16 -16 -16 -16 -16 -16 -16 -16 -16 -16 -16 -16 -16 -16 -16 -16 -15 -15 -15 -15 -15 -15 -15 -15 -15 -14 -14 -15 -15 -15 -14 -14 -14 -14 -14 -14 -14 -14 -14 -15 -15 -15 -15 -15 -15 -15 -15 -15 -15 -15 -15 -15 -15 -15 -15 -15 -15 -15 -15 -15 -14 -15
-16 -16 -16 -16 -16 -16 -16 -16 -16 -16 -16 -16 -16 -15 -16 -16 -16 -16 -15 -15 -15 -15 -15 -15 -15 -14 -14 -14 -14 -15 -15 -14 -14 -14 -14 -14 -14 -14 -14 -15 -15 -15 -15 -15 -15 -15 -15 -15 -15 -15 -15 -15 -15 -15 -15 -15 -15 -15 -15 -15 -14 -14
-16 -16 -16 -16 -16 -16 -16 -16 -16 -16 -16 -16 -16 -15 -15 -15 -16 -16 -15 -15 -15 -15 -15 -15 -15 -15 -14 -14 -14 -14 -14 -15 -14 -14 -14 -14 -14 -14 -14 -14 -15 -15 -15 -15 -15 -15 -15 -15 -15 -15 -15 -15 -15 -15 -15 -15 -15 -15 -15 -15 -15 -15
-16 -16 -16 -16 -16 -16 -16 -16 -16 -16 -16 -16 -16 -16 -15 -15 -15 -15 -15 -15 -15 -15 -15 -15 -15 -15 -15 -14 -14 -14 -14 -14 -15 -15 -15 -14 -14 -14 -14 -14 -15 -15 -15 -15 -15 -15 -15 -15 -15 -15 -15 -15 -15 -15 -15 -15 -15 -15 -15 -15 -15 -15
-16 -16 -16 -16 -16 -16 -16 -16 -16 -16 -16 -16 -16 -15 -15 -15 -15 -15 -15 -15 -15 -15 -15 -15 -15 -15 -15 -15 -14 -14 -14 -15 -15 -15 -15 -15 -14 -14 -14 -14 -14 -15 -15 -15 -15 -15 -15 -15 -15 -15 -15 -15 -15 -15 -15 -15 -15 -15 -15 -15 -15 -15
-16 -16 -16 -16 -16 -16 -16 -16 -16 -16 -16 -15 -15 -15 -15 -15 -15 -15 -15 -15 -15 -15 -15 -15 -15 -15 -15 -15 -15 -15 -15 -15 -15 -15 -15 -15 -15 -15 -14 -14 -14 -15 -15 -15 -15 -15 -15 -15 -15 -15 -15 -15 -15 -15 -15 -15 -15 -15 -15 -15 -15 -15
-16 -16 -16 -16 -16 -16 -16 -16 -16 -16 -16 -16 -16 -16 -16 -16 -16 -16 -16 -15 -15 -15 -15 -15 -15 -15 -15 -15 -15 -15 -15 -15 -15 -15 -15 -15 -15 -15 -15 -15 -15 -15 -15 -15 -15 -15 -15 -15 -15 -15 -15 -15 -15 -15 -15 -15 -15 -15 -15 -15 -15 -15
-16 -16 -16 -16 -16 -16 -15 -16 -16 -16 -16 -16 -16 -16 -16 -16 -16 -16 -16 -16 -16 -16 -15 -15 -15 -15 -15 -15 -15 -15 -15 -15 -15 -15 -15 -15 -15 -15 -15 -15 -15 -15 -15 -15 -15 -15 -15 -15 -15 -15 -15 -15 -15 -15 -15 -15 -15 -15 -15 -15 -15 -15
-16 -16 -16 -16 -15 -15 -16 -16 -16 -16 -16 -16 -16 -16 -16 -16 -16 -16 -16 -16 -16 -16 -16 -16 -16 -15 -15 -15 -15 -15 -15 -15 -15 -15 -15 -15 -15 -15 -15 -15 -15 -15 -15 -15 -15 -15 -15 -15 -15 -15 -15 -15 -15 -15 -15 -15 -15 -15 -15 -15 -15 -15
-16 -16 -15 -15 -15 -16 -16 -16 -16 -16 -16 -16 -16 -16 -16 -16 -16 -16 -16 -16 -16 -16 -16 -16 -16 -16 -16 -15 -15 -15 -16 -16 -16 -16 -15 -15 -15 -15 -15 -15 -15 -15 -15 -15 -15 -15 -15 -15 -15 -15 -15 -15 -15 -15 -15 -16 -16 -16 -16 -16 -16 -16
-15 -16 -16 -16 -16 -16 -16 -16 -17 -16 -16 -16 -16 -16 -16 -16 -16 -16 -17 -17 -16 -16 -16 -16 -16 -16 -16 -15 -15 -16 -16 -16 -16 -16 -16 -15 -15 -15 -15 -15 -15 -15 -15 -15 -15 -15 -15 -15 -15 -15 -15 -16 -16 -16 -16 -16 -16 -16 -16 -16 -16 -16
-15 -16 -17 -17 -17 -16 -16 -17 -17 -17 -17 -17 -16 -17 -17 -17 -17 -17 -17 -17 -17 -16 -16 -16 -16 -16 -16 -16 -16 -16 -16 -16 -16 -16 -16 -15 -15 -15 -15 -15 -15 -15 -15 -15 -15 -15 -15 -15 -15 -16 -16 -16 -16 -16 -16 -16 -16 -16 -16 -16 -16 -16
-16 -17 -17 -17 -16 -16 -16 -17 -17 -17 -17 -16 -16 -16 -17 -17 -17 -17 -17 -17 -17 -17 -17 -16 -16 -16 -16 -16 -16 -16 -16 -16 -16 -16 -16 -16 -15 -15 -15 -15 -15 -15 -15 -15 -15 -15 -15 -15 -16 -16 -16 -16 -16 -16 -16 -16 -16 -16 -16 -16 -16 -16
Height
5817 5817 5817 5818 5819 5819 5818 5819 5820 5820 5819 5819 5820 5821 5822 5823 5823 5823 5823 5824 5824 5824 5824 5824 5825 5825 5826 5826 5826 5826 5826 5826 5826 5825 5825 5825 5824 5824 5825 5826 5827 5828 5829 5830 5831 5832 5833 5833 5834 5834 5835 5836 5836 5837 5837 5838 5839 5840 5841 5841 5842 5843
5814 5814 5815 5816 5817 5817 5817 5817 5818 5818 5817 5817 5818 5819 5820 5821 5821 5821 5821 5822 5822 5822 5822 5822 5823 5823 5824 5824 5824 5824 5824 5824 5824 5824 5823 5823 5823 5823 5823 5824 5825 5826 5828 5828 5829 5830 5831 5831 5832 5832 5833 5834 5835 5835 5836 5836 5837 5838 5839 5840 5841 5841
5811 5811 5812 5813 5815 5814 5815 5816 5816 5816 5815 5815 5816 5817 5818 5818 5818 5819 5819 5820 5820 5820 5820 5821 5821 5821 5822 5822 5822 5822 5822 5822 5822 5822 5822 5821 5821 5821 5821 5822 5822 5824 5825 5827 5827 5828 5829 5830 5830 5830 5831 5832 5833 5834 5834 5835 5835 5836 5837 5838 5839 5840
5809 5809 5810 5812 5813 5812 5812 5814 5814 5814 5813 5813 5814 5815 5815 5816 5816 5816 5817 5818 5818 5818 5819 5819 5820 5819 5819 5819 5819 5819 5820 5820 5820 5820 5820 5820 5819 5819 5819 5820 5820 5822 5823 5825 5826 5826 5827 5828 5828 5828 5829 5830 5831 5832 5833 5833 5834 5834 5835 5836 5837 5838
5808 5808 5809 5810 5811 5810 5810 5811 5812 5812 5811 5811 5812 5812 5813 5813 5813 5814 5815 5816 5816 5817 5817 5817 5817 5817 5817 5817 5817 5817 5817 5817 5817 5818 5818 5818 5818 5817 5818 5818 5818 5819 5821 5822 5824 5824 5825 5826 5826 5826 5827 5828 5829 5830 5831 5831 5832 5832 5833 5834 5835 5836
5805 5806 5807 5808 5808 5808 5808 5808 5808 5809 5809 5809 5810 5810 5810 5810 5811 5812 5813 5814 5814 5815 5815 5815 5815 5815 5815 5815 5815 5815 5815 5815 5815 5816 5816 5816 5816 5816 5816 5816 5817 5818 5819 5820 5821 5822 5823 5824 5824 5824 5825 5826 5827 5828 5828 5829 5830 5830 5831 5831 5832 5834
5803 5804 5805 5806 5806 5805 5806 5806 5806 5806 5807 5807 5807 5807 5808 5808 5809 5810 5811 5812 5812 5813 5813 5813 5813 5813 5814 5813 5813 5813 5813 5813 5813 5814 5814 5814 5814 5814 5814 5814 5815 5816 5816 5817 5819 5820 5821 5821 5822 5822 5823 5824 5825 5825 5826 5827 5828 5828 5828 5829 5830 5831
5802 5802 5803 5803 5804 5804 5803 5804 5804 5803 5804 5804 5805 5805 5806 5807 5808 5809 5809 5810 5811 5811 5811 5811 5811 5811 5811 5811 5811 5811 5810 5811 5811 5812 5812 5812 5813 5813 5812 5813 5813 5814 5814 5815 5816 5817 5818 5819 5820 5821 5821 5822 5822 5823 5824 5825 5826 5826 5827 5827 5828 5829
5800 5800 5800 5801 5802 5802 5802 5802 5802 5802 5802 5803 5803 5804 5805 5806 5807 5807 5808 5809 5809 5809 5809 5809 5809 5809 5809 5809 5808 5808 5808 5809 5809 5811 5811 5811 5811 5811 5811 5811 5812 5812 5812 5813 5814 5815 5816 5817 5817 5818 5819 5820 5821 5822 5823 5823 5824 5824 5825 5826 5826 5828
5798 5798 5798 5799 5799 5800 5800 5800 5800 5801 5801 5802 5803 5804 5804 5805 5806 5806 5806 5807 5807 5807 5807 5807 5807 5807 5806 5806 5806 5806 5807 5807 5808 5809 5809 5809 5809 5809 5809 5809 5810 5810 5810 5811 5812 5813 5813 5814 5815 5816 5816 5818 5819 5820 5820 5821 5822 5823 5823 5824 5825 5826
5797 5797 5797 5798 5798 5799 5799 5799 5799 5800 5801 5802 5802 5803 5803 5804 5804 5804 5804 5805 5805 5805 5805 5805 5804 5803 5802 5802 5803 5804 5805 5806 5806 5806 5806 5806 5806 5806 5806 5807 5808 5808 5808 5809 5810 5811 5812 5812 5813 5814 5814 5815 5816 5817 5818 5819 5820 5821 5822 5823 5824 5824
5797 5797 5797 5798 5798 5798 5799 5799 5799 5800 5801 5801 5801 5802 5802 5802 5802 5802 5803 5804 5804 5804 5804 5803 5802 5801 5800 5800 5801 5803 5803 5803 5803 5804 5804 5804 5804 5804 5804 5805 5806 5807 5807 5808 5809 5809 5810 5811 5812 5812 5813 5813 5814 5815 5816 5817 5818 5819 5820 5821 5821 5822
5796 5797 5798 5798 5798 5798 5798 5798 5799 5799 5800 5801 5801 5801 5801 5801 5801 5800 5801 5803 5802 5801 5801 5800 5799 5799 5798 5799 5801 5802 5801 5801 5802 5803 5803 5803 5803 5804 5804 5804 5805 5806 5806 5807 5807 5808 5808 5809 5810 5812 5812 5812 5813 5813 5813 5814 5816 5817 5817 5818 5819 5819
5796 5797 5797 5797 5797 5797 5797 5797 5798 5799 5799 5800 5799 5799 5799 5799 5799 5798 5799 5800 5800 5799 5799 5799 5798 5798 5796 5797 5799 5800 5800 5800 5801 5801 5802 5802 5802 5802 5803 5803 5804 5805 5805 5805 5806 5806 5807 5808 5809 5810 5811 5811 5811 5811 5812 5812 5813 5814 5815 5816 5817 5818
5795 5795 5796 5796 5796 5796 5796 5797 5797 5797 5798 5798 5798 5797 5797 5797 5797 5797 5796 5797 5797 5798 5798 5797 5798 5796 5794 5796 5798 5798 5798 5799 5800 5800 5800 5800 5800 5801 5801 5801 5802 5803 5803 5804 5804 5804 5805 5806 5807 5808 5809 5809 5810 5810 5810 5810 5811 5812 5813 5814 5815 5815
5794 5794 5795 5795 5795 5795 5796 5796 5796 5796 5796 5796 5796 5796 5796 5796 5796 5796 5795 5795 5795 5796 5796 5795 5795 5793 5793 5796 5797 5797 5797 5797 5798 5798 5798 5799 5799 5799 5799 5800 5800 5801 5801 5802 5802 5803 5804 5805 5805 5806 5807 5808 5808 5809 5809 5809 5810 5810 5811 5812 5813 5813
5793 5793 5794 5794 5794 5794 5794 5795 5795 5794 5794 5794 5794 5794 5794 5794 5794 5795 5794 5794 5794 5795 5794 5793 5792 5791 5792 5794 5795 5795 5796 5796 5796 5796 5797 5797 5797 5798 5798 5798 5798 5799 5800 5800 5801 5802 5803 5803 5803 5804 5805 5807 5807 5808 5808 5808 5808 5809 5810 5811 5811 5811
5791 5792 5792 5792 5792 5792 5793 5793 5793 5793 5793 5793 5793 5793 5793 5793 5793 5793 5793 5793 5793 5793 5794 5793 5791 5791 5791 5792 5793 5793 5794 5794 5794 5795 5795 5796 5796 5796 5796 5797 5797 5797 5798 5798 5799 5800 5801 5802 5802 5802 5804 5805 5806 5806 5806 5807 5807 5808 5808 5809 5810 5810
5790 5790 5790 5791 5791 5791 5791 5791 5791 5791 5791 5791 5792 5791 5791 5791 5791 5792 5792 5792 5791 5791 5792 5792 5791 5790 5790 5791 5792 5792 5792 5793 5793 5793 5794 5794 5795 5795 5795 5796 5796 5796 5796 5797 5798 5799 5800 5800 5801 5801 5802 5803 5804 5804 5804 5805 5805 5806 5806 5807 5807 5807
5789 5789 5789 5790 5790 5789 5790 5790 5790 5790 5790 5790 5790 5790 5790 5790 5790 5790 5790 5790 5790 5790 5790 5790 5790 5789 5789 5790 5790 5791 5791 5791 5791 5792 5792 5792 5793 5793 5794 5795 5795 5795 5795 5795 5796 5797 5798 5798 5799 5799 5800 5801 5802 5802 5802 5802 5803 5803 5804 5804 5805 5805
5789 5789 5789 5789 5789 5788 5788 5788 5788 5788 5788 5788 5789 5789 5789 5789 5789 5788 5788 5788 5788 5788 5788 5788 5788 5788 5788 5789 5789 5789 5789 5789 5789 5790 5790 5791 5791 5791 5792 5793 5794 5794 5793 5793 5794 5795 5795 5796 5796 5797 5798 5799 5800 5800 5799 5800 5800 5801 5801 5802 5803 5803
5787 5788 5788 5788 5787 5787 5787 5787 5786 5787 5787 5787 5787 5788 5788 5788 5787 5787 5786 5786 5786 5786 5786 5786 5786 5786 5787 5787 5787 5788 5787 5787 5788 5788 5789 5790 5790 5790 5791 5791 5792 5792 5792 5792 5792 5793 5793 5793 5794 5795 5796 5797 5797 5797 5797 5797 5798 5798 5799 5800 5800 5801
5786 5786 5786 5786 5786 5785 5785 5785 5785 5785 5785 5785 5785 5786 5786 5785 5785 5785 5785 5784 5784 5784 5783 5783 5783 5783 5784 5785 5785 5786 5786 5786 5787 5787 5788 5788 5788 5789 5789 5789 5790 5790 5790 5790 5790 5791 5791 5791 5792 5793 5794 5795 5795 5795 5795 5795 5796 5796 5797 5797 5798 5798
5784 5784 5784 5784 5784 5784 5784 5783 5783 5783 5783 5783 5783 5783 5783 5783 5783 5783 5783 5783 5783 5782 5782 5781 5781 5781 5781 5782 5783 5783 5784 5785 5785 5785 5786 5786 5787 5787 5787 5787 5787 5788 5788 5788 5788 5788 5788 5790 5790 5791 5793 5793 5793 5793 5793 5794 5794 5794 5794 5795 5796 5797
5781 5781 5782 5782 5782 5782 5782 5782 5782 5781 5781 5781 5781 5781 5781 5780 5780 5781 5781 5781 5781 5781 5781 5780 5780 5780 5780 5780 5780 5781 5782 5782 5783 5783 5784 5784 5784 5785 5785 5785 5785 5786 5786 5786 5786 5786 5786 5788 5789 5789 5790 5790 5790 5791 5792 5792 5792 5792 5793 5793 5794 5795
5779 5779 5780 5780 5781 5781 5781 5780 5780 5780 5780 5779 5779 5779 5779 5778 5778 5778 5778 5779 5779 5779 5779 5779 5778 5778 5778 5778 5778 5778 5779 5780 5780 5781 5782 5782 5782 5783 5783 5783 5784 5784 5784 5784 5784 5784 5784 5786 5787 5787 5788 5788 5789 5789 5790 5790 5790 5790 5791 5791 5792 5793
5777 5778 5778 5779 5779 5779 5779 5778 5778 5778 5778 5778 5777 5777 5777 5776 5776 5776 5776 5777 5777 5777 5777 5777 5776 5776 5776 5776 5776 5776 5776 5777 5778 5779 5779 5780 5780 5780 5780 5781 5781 5782 5782 5782 5782 5782 5782 5783 5784 5785 5786 5786 5787 5788 5788 5789 5789 5789 5789 5790 5791 5791
5776 5776 5776 5777 5777 5776 5776 5776 5776 5776 5776 5775 5775 5775 5775 5775 5774 5774 5774 5774 5775 5775 5775 5774 5774 5774 5774 5774 5774 5774 5774 5774 5775 5776 5777 5777 5778 5778 5778 5778 5779 5779 5780 5780 5780 5780 5780 5781 5782 5783 5783 5784 5785 5786 5786 5787 5787 5787 5788 5788 5789 5789
5774 5774 5774 5774 5774 5774 5774 5774 5774 5774 5773 5773 5773 5773 5773 5773 5773 5773 5772 5772 5772 5772 5772 5772 5772 5772 5772 5772 5771 5771 5771 5772 5773 5773 5774 5775 5775 5776 5776 5776 5776 5777 5777 5778 5778 5778 5778 5779 5780 5781 5781 5782 5782 5783 5783 5784 5784 5784 5785 5786 5787 5787
5772 5772 5772 5772 5772 5772 5772 5772 5772 5771 5771 5771 5771 5771 5771 5771 5771 5771 5771 5770 5770 5770 5770 5770 5769 5769 5770 5770 5769 5769 5769 5770 5770 5771 5772 5772 5773 5773 5773 5774 5774 5774 5774 5775 5775 5776 5776 5776 5777 5778 5779 5779 5780 5780 5780 5781 5781 5782 5783 5783 5784 5784
5770 5770 5770 5770 5770 5770 5770 5769 5769 5769 5769 5769 5769 5770 5770 5770 5770 5769 5769 5769 5768 5768 5768 5767 5767 5767 5767 5767 5767 5766 5767 5767 5768 5768 5769 5770 5770 5771 5771 5771 5771 5772 5772 5773 5773 5773 5774 5774 5774 5775 5776 5776 5777 5777 5778 5778 5779 5779 5780 5781 5781 5781
5768 5768 5768 5768 5767 5767 5767 5766 5766 5767 5767 5767 5768 5767 5768 5768 5767 5767 5767 5767 5767 5766 5766 5765 5764 5764 5764 5764 5764 5764 5764 5765 5765 5766 5766 5767 5768 5768 5769 5769 5769 5769 5770 5770 5770 5771 5771 5772 5772 5772 5773 5773 5774 5775 5775 5776 5776 5777 5777 5778 5778 5778
5766 5765 5765 5765 5764 5764 5764 5764 5764 5764 5765 5766 5765 5765 5765 5765 5765 5764 5764 5765 5764 5764 5763 5762 5762 5762 5762 5762 5762 5761 5761 5762 5763 5763 5764 5765 5765 5766 5766 5766 5767 5767 5767 5768 5768 5768 5769 5769 5769 5770 5770 5771 5771 5772 5772 5773 5773 5774 5774 5775 5775 5776
5763 5762 5762 5762 5762 5762 5762 5762 5762 5763 5764 5763 5762 5762 5762 5762 5762 5761 5761 5761 5762 5761 5760 5760 5760 5760 5759 5759 5759 5759 5759 5760 5760 5761 5761 5762 5763 5763 5764 5764 5764 5765 5765 5765 5766 5766 5766 5767 5767 5767 5767 5768 5768 5769 5769 5770 5770 5771 5772 5772 5773 5773
5759 5759 5760 5760 5760 5760 5761 5761 5761 5761 5761 5760 5759 5759 5759 5759 5759 5759 5758 5758 5758 5759 5758 5758 5758 5758 5757 5757 5757 5757 5758 5758 5758 5759 5759 5760 5760 5761 5762 5762 5762 5763 5763 5763 5764 5764 5764 5765 5765 5765 5765 5766 5766 5767 5767 5768 5768 5769 5769 5770 5770 5770
5757 5758 5758 5758 5759 5758 5758 5758 5758 5758 5758 5758 5758 5757 5757 5756 5756 5756 5755 5755 5756 5756 5756 5756 5756 5756 5755 5755 5755 5756 5756 5757 5757 5757 5758 5758 5759 5759 5760 5760 5760 5761 5761 5761 5762 5762 5762 5763 5763 5763 5763 5763 5764 5765 5765 5766 5766 5767 5767 5767 5767 5768
5756 5755 5754 5756 5756 5755 5755 5755 5756 5756 5756 5756 5756 5755 5754 5754 5754 5753 5753 5753 5754 5754 5754 5754 5754 5754 5753 5753 5754 5754 5755 5755 5756 5756 5756 5757 5757 5758 5758 5758 5759 5759 5759 5759 5759 5760 5760 5760 5761 5761 5761 5761 5762 5762 5763 5763 5764 5764 5765 5765 5765 5765
Wind_Speed
19 19 21 21 18 14 15 19 20 20 19 17 18 18 19 21 24 25 25 25 25 25 25 24 24 23 22 22 21 19 18 18 18 18 18 19 19 20 20 19 19 20 21 21 20 20 21 23 24 25 25 24 23 22 21 21 20 19 19 19 19 19
18 17 18 19 18 16 15 16 19 21 20 18 18 18 19 22 25 26 26 26 26 26 25 25 24 23 22 21 20 19 18 17 17 18 19 19 19 20 20 20 20 20 21 22 21 20 21 23 25 26 26 26 25 24 23 22 21 21 20 20 20 21
16 14 15 16 16 17 16 16 18 19 20 19 19 19 21 24 25 25 27 27 26 26 26 25 24 23 22 20 19 19 18 18 18 18 19 20 20 20 20 21 21 20 20 21 21 21 21 23 25 27 27 27 26 26 25 24 23 22 22 21 22 22
13 12 13 15 16 16 15 16 17 17 19 19 19 21 23 23 24 25 26 26 26 26 25 25 24 23 21 20 20 19 19 19 18 18 19 20 20 20 21 21 22 21 20 20 20 20 21 22 24 26 26 26 26 26 25 25 23 23 22 22 23 23
11 11 11 13 15 15 15 16 16 17 19 20 21 22 21 21 22 24 25 26 26 26 25 25 23 21 20 20 20 20 20 19 19 19 19 19 20 20 21 21 21 20 19 19 19 20 21 22 23 25 25 26 26 26 26 25 24 23 23 23 24 24
12 10 11 13 15 17 17 17 17 19 20 21 21 19 19 21 23 24 25 26 26 26 25 24 22 21 20 19 19 19 19 19 19 19 19 19 19 20 20 21 20 19 18 17 18 19 20 21 23 23 24 25 26 26 26 26 25 24 24 24 24 25
12 11 12 15 17 18 18 18 19 21 21 19 19 18 20 22 22 23 24 25 26 26 25 24 22 20 20 19 19 19 19 19 18 18 18 18 18 19 19 20 19 19 17 16 17 18 19 21 22 23 23 24 25 26 26 26 25 25 24 24 25 25
12 12 14 15 17 18 18 20 20 19 19 18 18 19 20 21 22 23 24 25 25 24 23 22 20 19 19 19 19 20 19 19 18 17 17 18 17 17 19 19 19 19 18 17 16 17 18 20 21 22 23 24 25 25 25 25 25 25 25 24 24 24
11 13 14 15 16 18 18 18 18 16 16 16 17 18 19 20 21 22 23 23 22 21 21 20 19 18 18 18 19 19 19 18 17 16 17 17 16 16 17 18 18 19 19 18 17 17 18 19 20 21 22 23 24 24 23 23 24 25 25 24 23 23
12 14 15 15 16 16 15 14 14 14 14 15 15 17 18 19 20 21 21 20 19 19 19 18 17 17 17 17 18 18 17 16 16 16 17 17 16 16 16 17 17 18 18 18 17 17 17 17 18 19 21 22 23 23 23 23 24 24 24 24 23 23
12 13 13 13 11 10 10 9 10 11 13 14 15 16 17 17 18 19 19 18 17 17 17 16 16 16 17 17 16 16 15 16 17 17 18 18 18 17 17 17 17 17 17 17 16 16 17 17 18 19 20 21 21 22 23 24 24 24 24 24 24 24
11 9 8 7 6 6 6 6 8 10 11 12 14 15 16 17 17 18 18 16 15 14 14 14 16 17 18 17 15 14 15 17 18 18 18 18 18 17 17 17 16 16 16 16 15 16 17 17 18 19 19 20 20 21 22 22 23 24 24 24 24 25
9 7 6 5 5 4 5 7 9 10 12 13 14 14 15 16 16 17 16 13 13 13 12 13 15 17 18 17 14 14 15 16 17 17 17 17 17 17 17 17 16 16 15 15 15 17 17 18 18 18 19 19 19 20 21 21 21 23 24 24 25 25
10 9 9 8 6 6 7 9 11 12 13 13 13 14 15 15 15 15 14 12 13 13 12 13 14 15 18 16 13 14 15 15 15 16 16 16 17 17 18 18 17 17 16 15 16 17 17 18 18 19 20 20 20 21 21 20 20 22 23 24 25 26
12 13 14 12 9 8 9 11 12 12 12 12 12 13 13 13 13 13 13 13 13 12 13 14 13 15 17 16 13 14 14 14 15 16 16 17 18 18 20 20 19 18 17 17 17 17 17 17 17 18 20 20 20 20 20 19 20 22 22 23 24 25
14 15 16 14 11 9 11 12 12 11 11 11 11 11 12 12 11 11 12 12 12 12 13 13 13 16 17 14 13 14 14 15 16 17 17 17 18 19 21 21 20 19 18 18 18 18 17 18 18 18 19 19 19 19 19 19 20 21 21 22 23 24
14 16 16 15 13 13 15 14 12 10 10 10 10 10 11 11 10 10 10 11 11 11 11 12 14 17 16 14 14 14 15 15 16 17 17 17 18 19 21 21 21 20 19 19 19 18 17 18 19 18 18 19 19 19 19 19 20 20 21 21 22 23
11 14 16 17 17 17 17 15 12 11 10 10 10 10 10 10 10 9 9 10 11 10 10 11 14 16 16 15 15 15 15 16 17 17 18 18 18 19 20 21 21 21 20 19 19 18 18 18 19 18 18 19 20 20 19 19 19 20 20 20 20 21
8 11 14 16 17 18 17 15 13 11 11 10 10 10 11 11 11 10 9 9 11 11 11 12 13 15 16 16 15 15 16 17 18 18 18 17 18 18 19 20 21 22 21 20 19 19 18 18 19 18 18 18 19 19 18 17 18 19 20 20 21 21
7 9 11 13 14 15 15 14 12 11 10 10 10 11 12 12 12 11 10 10 11 12 13 13 13 15 16 16 16 16 16 17 18 18 18 17 18 19 19 19 21 22 21 21 20 19 18 18 19 18 18 18 19 19 17 17 18 19 20 20 21 21
8 9 10 11 13 15 14 13 12 10 10 10 11 11 12 13 13 12 11 11 11 12 13 14 14 15 15 15 16 17 17 19 18 17 18 18 18 20 20 20 20 21 22 21 20 19 19 19 19 18 18 18 18 18 18 17 18 19 20 21 21 21
9 10 11 12 14 14 14 13 12 11 11 11 11 12 12 13 13 13 13 12 12 13 13 13 14 15 14 14 15 16 17 19 19 18 19 19 18 20 20 20 21 21 21 21 21 21 20 20 20 19 19 19 18 18 19 19 19 19 20 20 20 21
12 12 12 13 14 15 14 14 13 12 12 12 12 12 13 14 14 14 13 13 12 13 13 13 13 13 14 14 14 15 16 18 19 20 20 20 19 19 20 21 21 22 22 22 22 22 22 21 21 20 18 18 17 17 17 18 19 19 20 20 20 20
13 13 13 13 14 15 14 14 13 13 12 12 13 13 14 15 15 14 13 12 12 11 12 12 12 12 12 13 14 15 16 17 18 19 20 20 20 20 20 21 21 22 23 23 23 24 23 22 21 20 18 18 18 17 16 17 18 19 19 20 19 19
13 13 13 13 14 15 14 13 13 13 13 13 13 14 14 16 16 15 13 12 12 11 9 10 12 12 12 12 13 15 16 17 18 19 19 19 20 20 20 20 21 22 23 24 24 25 25 22 21 21 20 19 19 19 18 18 18 17 19 19 20 20
12 13 13 13 14 15 14 13 13 13 13 13 13 14 14 15 16 15 14 13 13 12 10 10 13 15 14 13 13 14 16 17 18 19 19 20 20 20 21 21 21 22 23 24 25 26 25 23 22 22 21 20 20 20 20 20 20 19 19 20 20 21
12 13 13 13 14 15 15 14 13 14 15 15 14 14 14 14 15 15 15 15 15 15 14 15 17 18 18 17 15 15 16 17 18 19 20 20 21 21 22 22 22 22 23 24 25 26 26 25 23 23 22 22 22 22 22 22 23 22 21 21 21 21
11 12 13 14 16 17 16 15 14 15 16 16 16 16 14 13 14 15 16 17 17 18 19 21 22 21 19 19 19 17 17 17 18 19 20 21 21 22 23 23 23 23 24 24 25 26 27 26 25 24 24 24 23 23 23 24 24 24 23 23 23 22
12 13 14 15 16 17 17 16 16 17 18 18 18 18 17 15 15 16 17 18 19 21 23 24 25 23 20 19 19 19 18 18 19 20 21 22 23 23 23 24 24 24 25 25 25 26 26 26 25 25 24 24 23 23 22 22 23 23 23 23 23 24
12 14 15 16 17 17 17 17 17 19 20 21 21 21 20 19 19 18 19 20 21 22 24 25 25 24 22 19 18 18 18 18 20 21 22 23 24 24 24 24 25 25 25 25 25 26 26 26 26 25 24 23 23 22 22 22 22 23 23 23 25 25
14 15 16 17 17 18 18 19 20 21 22 23 23 23 22 22 22 22 22 22 23 23 25 26 27 26 24 21 17 16 17 18 20 22 23 24 25 26 26 25 26 26 26 26 26 26 26 26 25 25 24 23 22 22 22 23 23 23 23 24 25 25
17 17 18 19 19 20 21 22 22 23 23 23 24 24 24 23 24 24 24 24 23 23 23 24 26 25 25 22 18 15 16 18 20 22 23 24 25 26 27 27 26 26 26 26 26 26 26 25 24 23 23 22 22 22 22 22 22 23 23 23 23 23
19 20 21 21 22 23 24 24 25 24 23 23 24 25 25 24 24 25 25 25 23 20 19 21 23 24 23 21 18 15 16 18 19 21 23 24 26 27 27 28 28 27 27 27 26 26 25 24 23 22 21 21 21 20 19 19 20 20 20 20 20 20
22 22 22 23 24 24 24 24 23 21 19 20 22 23 24 24 24 25 26 26 23 20 18 19 21 21 20 18 16 15 15 17 18 20 23 24 26 27 28 28 28 28 27 26 25 24 24 23 22 20 19 19 18 18 17 17 16 16 16 16 16 16
23 22 21 22 22 22 22 21 20 19 19 19 21 22 22 23 22 22 22 23 23 22 19 19 20 19 18 16 14 14 15 16 17 19 22 24 26 27 27 28 27 27 26 25 24 23 22 21 20 18 17 16 16 16 15 14 14 14 13 13 13 13
22 21 19 18 19 21 21 20 20 21 21 21 23 23 21 20 20 19 20 20 21 21 19 18 18 18 17 16 14 14 15 16 17 18 21 22 24 25 26 26 26 26 25 24 23 22 21 20 18 17 16 15 15 14 14 13 13 12 11 11 11 10
21 20 18 18 20 22 22 22 22 23 23 23 24 22 19 19 19 20 21 20 18 19 19 18 18 18 18 16 15 15 15 16 17 18 19 21 22 23 24 24 24 24 24 23 23 22 21 20 18 17 16 15 14 13 13 12 11 11 10 10 10 9
Wind_Direction
277 266 256 254 262 277 273 260 254 249 244 236 238 246 254 265 272 270 267 267 270 272 274 277 281 285 288 290 291 289 286 282 278 274 269 266 263 260 257 252 245 235 231 231 229 226 228 232 237 241 242 242 241 242 243 244 244 243 243 246 250 252
281 272 264 259 259 267 270 262 256 250 246 246 249 253 264 277 279 276 272 270 272 273 274 278 282 286 289 290 289 286 283 280 277 273 269 266 262 259 257 254 249 241 232 230 231 230 230 233 237 240 242 242 241 241 242 243 242 241 240 240 243 247
281 277 271 266 262 263 265 259 254 253 253 253 252 259 275 283 282 278 274 272 272 273 276 280 283 286 288 288 286 282 279 276 274 272 269 265 261 258 255 254 251 246 237 231 230 231 231 233 236 239 241 241 241 240 241 243 243 241 239 238 238 242
271 274 275 269 263 259 258 252 252 255 252 249 253 266 279 280 277 275 273 271 272 273 277 280 283 285 284 283 282 279 276 273 271 269 267 264 260 256 254 253 252 249 243 235 230 230 231 233 235 238 239 240 240 240 241 243 244 242 240 238 236 238
268 266 267 261 256 251 252 252 251 250 248 251 258 268 273 273 272 272 271 271 272 274 276 279 281 281 281 281 280 277 273 271 269 267 266 264 260 255 252 252 252 251 247 241 233 229 229 232 235 237 238 239 239 240 240 241 243 243 242 239 236 235
271 264 256 250 247 246 249 250 247 246 248 253 259 265 267 268 269 269 271 272 273 274 276 278 278 279 279 278 277 274 272 271 269 265 263 262 259 255 252 251 252 252 250 244 237 230 227 229 233 236 236 237 237 237 238 239 241 242 242 240 237 235
255 251 248 246 243 242 243 242 242 245 246 250 255 260 263 265 267 268 270 271 273 275 276 277 277 278 278 275 273 271 270 270 268 264 260 260 257 253 251 250 251 251 249 244 238 232 228 228 230 233 235 236 236 236 236 238 239 241 242 241 239 237
243 241 242 243 241 239 238 237 240 244 247 250 254 259 262 264 265 267 269 271 273 275 276 277 277 278 276 273 271 270 269 268 264 260 258 258 256 252 250 249 250 250 247 242 238 234 230 228 229 231 233 234 235 235 236 237 239 241 243 244 243 241
235 237 236 236 237 238 239 239 241 245 248 251 255 259 263 264 266 269 271 272 273 274 275 276 276 275 273 270 269 269 268 265 261 257 256 256 253 249 247 247 247 248 246 241 237 234 231 229 228 229 230 232 233 233 235 236 238 241 243 245 246 246
229 233 233 231 232 232 233 234 237 243 248 253 257 261 264 267 270 271 271 271 271 271 272 273 274 271 268 266 266 267 266 262 259 256 254 253 249 244 242 242 242 243 241 237 235 233 231 228 227 227 227 228 230 231 233 235 237 240 243 246 248 249
230 233 231 228 224 222 226 234 241 249 256 260 264 266 270 271 270 269 267 268 269 271 273 273 270 266 263 262 262 263 260 257 254 252 250 248 244 237 234 235 236 237 235 232 231 232 231 228 226 226 226 226 226 229 231 233 236 239 243 247 250 251
233 229 222 218 219 225 236 251 260 265 268 269 271 272 272 272 270 268 268 269 270 272 272 270 266 264 264 263 265 264 257 252 251 250 248 246 243 237 233 231 232 235 234 231 230 233 231 228 226 227 228 227 225 226 229 231 234 238 241 245 248 250
227 225 231 241 251 260 269 276 279 279 279 279 278 278 277 277 275 273 275 276 274 273 269 266 268 270 269 270 272 266 256 253 254 254 252 250 247 243 238 235 233 235 236 234 232 235 234 230 228 228 229 228 226 225 226 228 231 236 239 242 245 248
228 236 252 266 274 287 295 292 289 286 284 284 285 287 287 288 286 284 288 289 282 282 276 271 271 273 273 274 273 265 258 256 257 257 255 252 249 245 241 237 235 235 235 235 234 234 235 232 228 228 230 231 229 229 231 232 233 236 238 241 244 248
240 246 257 265 270 286 298 292 287 286 286 286 288 290 291 293 293 291 294 294 291 291 286 282 278 272 269 271 271 265 260 255 253 255 255 252 250 246 241 237 236 235 234 235 236 235 236 235 232 231 234 236 235 235 237 237 237 239 241 243 246 249
259 260 262 261 261 278 291 287 283 285 287 285 285 287 289 291 293 291 291 291 293 292 290 291 284 272 269 273 272 264 257 253 251 253 255 254 252 247 242 239 236 236 236 238 240 241 242 242 240 239 239 240 239 238 238 238 239 242 245 248 249 251
270 271 265 256 258 273 284 284 280 280 281 279 280 282 283 286 286 287 287 286 286 286 287 289 283 277 279 280 274 266 260 257 254 254 255 256 254 249 243 240 237 238 240 243 246 248 250 250 247 245 243 242 240 238 238 238 240 243 247 249 250 252
268 266 257 252 258 270 279 279 275 275 276 276 279 281 282 283 284 283 283 284 283 282 281 278 277 279 281 279 274 271 266 263 261 259 257 256 254 249 242 239 239 241 245 249 252 254 256 256 254 250 248 249 247 243 241 240 241 244 245 246 246 248
265 262 256 256 262 269 274 274 271 272 274 278 283 285 287 288 288 287 283 282 282 281 278 273 273 275 276 274 271 268 265 264 264 263 261 257 255 251 245 241 240 243 249 252 255 257 258 259 258 254 252 254 254 250 246 244 244 246 246 245 245 246
261 263 261 261 265 268 271 272 271 271 275 282 286 287 288 289 288 285 281 277 276 276 275 272 270 270 270 271 268 266 265 264 263 264 264 260 256 254 250 245 242 245 252 256 258 258 258 258 258 258 255 255 256 253 251 249 248 247 247 247 247 248
258 263 266 266 268 270 273 275 275 276 281 285 287 284 282 282 281 277 273 269 266 266 268 268 267 266 267 268 267 266 266 266 265 264 264 260 256 254 253 249 245 247 253 259 261 260 260 259 258 258 258 257 257 256 255 254 252 250 249 249 251 252
258 262 264 267 271 274 277 278 280 284 289 290 288 283 278 276 274 271 266 261 257 256 257 260 263 265 265 264 264 264 264 266 267 266 264 261 257 254 253 252 249 249 254 259 262 261 260 260 262 262 261 259 258 258 257 255 253 252 252 253 256 257
260 261 260 264 271 275 278 280 284 289 294 296 291 284 280 276 273 270 266 261 257 255 254 254 258 264 267 267 266 264 263 263 263 264 264 262 259 255 253 253 252 251 254 258 260 260 260 263 267 267 266 262 260 263 261 257 256 256 256 257 259 261
260 259 257 262 270 274 277 280 284 289 293 293 288 284 280 276 273 270 264 258 256 256 259 261 261 264 270 272 271 268 265 264 263 263 263 262 261 258 255 255 255 254 256 258 259 259 261 263 266 267 270 270 268 268 267 265 264 261 260 259 260 263
254 254 255 261 269 272 275 278 282 286 289 288 286 285 281 274 271 270 264 256 251 249 260 275 279 277 275 275 275 271 267 264 264 264 263 262 262 260 258 256 255 255 256 257 258 260 263 264 263 266 272 274 271 269 270 271 270 267 266 265 264 264
246 249 253 259 265 268 270 274 279 283 285 284 283 285 283 273 265 265 264 258 253 245 251 279 294 294 286 278 276 274 270 265 263 263 263 262 262 261 260 258 256 254 255 257 259 261 265 266 267 270 272 272 270 270 272 273 271 270 271 272 271 269
241 246 251 255 259 263 266 270 274 277 278 278 279 282 285 275 263 261 263 263 262 256 257 274 291 298 291 280 274 272 272 269 264 262 262 261 261 261 261 261 259 256 256 258 261 264 266 269 271 272 272 271 270 270 272 273 273 273 273 274 276 275
240 244 248 252 255 260 263 265 266 269 270 272 273 275 279 278 268 264 265 267 270 270 271 277 286 294 291 280 272 270 270 271 268 263 261 260 258 258 258 259 259 259 258 259 261 264 267 270 271 272 272 272 271 271 271 272 273 274 274 273 275 277
239 243 247 250 253 256 259 260 261 264 267 268 269 271 273 274 271 269 270 272 274 277 279 282 285 287 287 279 270 266 267 269 269 265 262 260 257 256 256 256 258 259 260 261 262 265 267 269 270 270 271 272 273 274 275 274 274 275 274 272 274 278
232 237 243 246 249 251 254 256 258 262 266 269 271 274 276 275 273 271 271 274 276 279 281 283 284 284 283 278 268 262 262 265 266 264 261 259 257 256 255 255 257 258 260 261 262 264 266 268 269 270 271 272 273 275 275 275 274 274 273 273 275 278
230 234 239 243 247 250 253 256 259 261 265 269 273 276 278 279 277 273 272 273 276 279 281 282 282 282 280 276 267 261 261 262 263 262 260 258 257 256 255 254 255 257 258 260 261 262 263 264 266 267 269 270 271 272 273 273 274 274 274 275 276 277
234 237 240 244 247 250 253 257 259 262 265 269 272 273 276 277 276 275 274 275 279 283 283 279 276 275 273 269 263 260 261 261 260 259 259 258 257 256 255 254 255 255 256 257 258 259 260 261 262 264 266 268 270 271 272 272 273 274 275 276 278 279
238 240 243 246 249 251 254 257 259 263 267 270 271 272 273 274 274 274 273 274 281 285 281 272 267 265 263 259 255 256 258 259 258 258 257 257 257 256 255 255 254 254 254 254 255 257 258 258 259 260 262 265 268 271 273 275 276 277 278 279 280 280
240 242 244 247 250 253 255 259 263 266 269 269 271 274 274 272 272 271 271 271 274 276 274 267 263 260 257 252 250 252 255 256 257 257 257 255 254 254 253 252 252 251 251 252 253 255 256 257 257 258 259 262 265 269 272 274 275 276 277 276 276 277
244 246 248 250 253 257 259 263 266 265 266 268 273 278 275 270 267 266 266 267 267 268 268 264 262 261 257 252 251 252 254 255 257 258 257 255 253 251 250 249 249 249 249 250 251 252 253 254 255 256 257 258 259 261 263 265 266 267 268 270 272 275
246 247 250 254 255 257 259 260 262 264 268 274 280 284 279 268 262 262 264 264 265 266 263 259 263 265 260 257 256 257 257 256 257 258 259 258 255 253 251 249 248 248 248 249 249 250 250 251 251 252 253 253 254 254 255 257 258 260 263 267 270 273
250 253 253 254 253 254 258 260 263 270 275 279 284 286 280 268 263 264 264 265 267 266 263 262 265 266 262 258 259 262 262 261 261 261 260 260 258 256 255 253 252 251 250 250 250 250 250 250 251 251 251 251 251 251 252 254 256 259 263 266 270 273